< < Back
Terminal Aerodrome Forecast


Current Version              Previous Versions:   1  2  3  4  5  6  7  8  9  

Terminal Aerodrome Forecast

529
FTUS42 KFFC 262335
TAFPDK
TAF
KPDK 262335Z 2700/2724 31010G20KT P6SM BKN025 OVC100
     FM270300 31008G18KT P6SM SCT025 BKN100
     FM270800 30006KT P6SM OVC025
     FM271600 31010KT P6SM BKN040
     FM271900 32013G23KT P6SM SCT250=

Latest METAR

428
SAUS70 KWBC 270100 RRG
MTRPDK
METAR KPDK 270053Z 31009KT 10SM FEW028 02/M03 A2992 RMK AO2 SLP144
T00171033


USA.gov is the U.S. government's official web portal to all federal, state and local government web resources and services.